[[{"header":{"parameterUnit":"m.s-1","parameterCategory":1,"la1":30.2991,"la2":30.254,"lo1":-89.0895,"lo2":-89.0444,"dy":0.0017,"dx":0.0017,"nx":28,"ny":28,"refTime":"2023-08-22T09:00:00:Z","depth":0,"parameterNumber":2,"parameterNumberName":"U-component_of_WINDS"},"data":[0,0,0,0,0,0,0,0,0,0,0,0,0,0,0,0,0,0,0,0,0,0,0,0,0,0,0,0,0,0,0,0,0,0,0,0,0,0,0,0,0,0,0,0,0,0,0,0,0,0,0,0,0,0,0,0,0,0,2.8504,2.8505,0,2.8625,2.8627,2.8628,2.8615,2.8613,2.8611,2.8609,2.8735,2.874,2.8745,0,0,0,0,0,0,0,0,0,0,0,0,0,2.826,2.8264,2.8503,2.8505,2.8506,2.8625,2.8627,2.8628,2.8615,2.8613,2.861,2.8608,2.8734,2.874,2.8746,0,0,0,0,0,0,0,0,0,0,0,0,0,2.8372,2.8266,2.8503,2.8514,2.8516,2.8625,2.8627,2.8629,2.8616,2.8613,2.861,2.8607,2.8732,2.8739,2.8747,2.8853,0,0,2.877,2.8774,0,0,0,0,0,0,0,0,2.8366,2.8381,2.8511,2.8514,2.8516,2.8602,2.8587,2.8704,2.8616,2.8578,2.8609,2.8606,2.8693,2.8704,2.8733,2.8859,2.8864,2.8771,2.8776,2.8779,2.8781,0,0,0,0,0,0,0,2.8358,2.8376,2.8552,2.8513,2.8516,2.8513,2.8526,2.8609,2.8651,2.8581,2.858,2.8595,2.8694,2.8726,2.8736,2.8866,2.8771,2.8778,2.8783,2.8786,2.9082,2.9085,0,0,0,0,0,0,2.8347,2.8369,2.8548,2.8555,2.8432,2.852,2.8534,2.8577,2.865,2.8658,2.8597,2.8594,2.8714,2.8727,2.8741,2.8868,2.8779,2.8786,2.8791,2.9079,2.9083,2.9086,0,0,0,0,0,0,2.8342,2.8363,2.8543,2.8462,2.8485,2.8527,2.8576,2.8581,2.8613,2.8662,2.8669,2.8622,2.8712,2.873,2.8824,2.8872,2.879,2.8797,2.9075,2.908,2.9085,2.9123,0,0,0,0,0,0,2.8335,2.8362,2.8402,2.8463,2.8489,2.8624,2.8579,2.8586,2.8626,2.8623,2.8687,2.8695,2.8711,2.8813,2.8832,2.8881,2.8803,2.9071,2.9077,2.9083,2.9118,2.9129,2.9138,0,0,0,0,0,2.8327,2.8409,2.8404,2.8426,2.8541,2.8627,2.8642,2.8659,2.863,2.8671,2.8702,2.8693,2.8864,2.8823,2.8844,2.8896,2.9068,2.9076,2.9083,2.9113,2.9127,2.9138,0,0,0,0,0,0,2.8353,2.8417,2.8413,2.8517,2.8567,2.8625,2.8677,2.8673,2.8732,2.8727,2.8746,2.8761,2.8856,2.8886,2.8839,2.9002,2.8962,2.8974,2.8978,2.8991,2.9001,2.8991,2.8809,0,0,0,0,0,2.8371,2.8435,2.8488,2.8575,2.86,2.8634,2.8673,2.8682,2.8734,2.8755,2.8793,2.8845,2.891,2.8953,2.9016,2.9123,2.9136,2.9169,2.9179,2.9187,2.9197,2.9254,2.9269,2.911,2.911,2.911,0,0,2.8409,2.8452,2.8491,2.8582,2.8621,2.8687,2.8652,2.8724,2.8773,2.8766,2.8857,2.8887,2.8946,2.9047,2.9093,2.9075,2.9244,2.9197,2.9203,2.9208,2.9263,2.9278,2.9292,2.9115,2.9114,2.9114,0,0,2.851,2.855,2.8626,2.8666,2.8726,2.8748,2.8766,2.8825,2.8844,2.8936,2.8931,2.8991,2.9103,2.9145,2.918,2.9298,2.9291,2.9318,2.937,2.9426,2.9438,2.9449,2.9489,2.9504,2.9328,2.9328,2.9328,0,2.855,2.8649,2.8666,2.8738,2.8777,2.8773,2.885,2.8888,2.8966,2.8993,2.8972,2.9111,2.9151,2.9261,2.9289,2.9319,2.934,2.931,2.9435,2.9446,2.9457,2.9495,2.9511,2.933,2.933,2.933,2.933,0,2.8693,2.8762,2.8817,2.889,2.8936,2.901,2.9038,2.9083,2.9088,2.9112,2.9205,2.9252,2.9323,2.9351,2.9357,2.9461,2.9448,2.9431,2.9391,2.9475,2.9511,2.9526,2.9334,2.9333,2.9333,2.9332,0,0,2.8814,2.8896,2.8916,2.8948,2.9014,2.9068,2.9142,2.9211,2.9248,2.9302,2.9363,2.9459,2.9443,2.9483,2.9494,2.9543,2.9631,2.952,2.9522,2.9537,2.9747,2.9758,2.9774,2.9627,2.963,2.9633,2.9741,0,2.8921,2.9051,2.9068,2.9183,2.9246,2.9243,2.9308,2.9355,2.938,2.9437,2.9465,2.9531,2.9506,2.953,2.9579,2.961,2.9673,2.9603,2.9684,2.9687,2.9667,2.9794,2.9806,2.9906,2.9756,2.9758,2.976,0,2.9063,2.9119,2.924,2.9296,2.9323,2.938,2.9444,2.95,2.9553,2.9568,2.9613,2.9617,2.9694,2.9652,2.9757,2.9709,2.9743,2.9764,2.9768,2.9775,2.9727,2.9802,2.9938,2.9952,2.9783,2.9781,2.9779,0,2.9137,2.9243,2.9329,2.9357,2.9425,2.9465,2.9495,2.9546,2.9586,2.9642,2.9668,2.9734,2.9769,2.9819,2.9841,2.9809,2.9944,2.9905,2.9957,2.9957,2.9984,2.9982,3.0126,3.001,3.001,3.001,3.0009,0,2.9253,2.9326,2.9362,2.9415,2.9497,2.9516,2.9597,2.9626,2.9671,2.9729,2.9731,2.9786,2.9812,2.9871,2.9889,2.9972,2.9988,3.0002,3.0005,3.0,2.9998,3.0022,3.0014,3.0014,3.0013,3.0012,3.0011,0,2.9348,2.9375,2.9468,2.9524,2.954,2.9598,2.9646,2.9697,2.9721,2.9794,2.9813,2.9851,2.992,2.9947,3.0032,3.0044,3.0139,3.0138,3.012,3.0121,3.0171,3.0165,3.0334,3.0356,3.0227,3.0228,3.0229,0,2.942,2.9476,2.9538,2.9576,2.9607,2.967,2.971,2.9732,2.9774,2.9838,2.9881,2.995,3.0005,3.0115,3.0151,3.0215,3.0215,3.027,3.0224,3.0217,3.0213,3.0209,3.0213,3.0277,3.0278,3.0279,3.028,0,2.9543,2.9553,2.9611,2.9674,2.9722,2.9773,2.9822,2.9854,2.9882,2.993,2.9999,3.0043,3.0128,3.0196,3.0262,3.0293,3.0292,3.0295,3.031,3.0304,3.029,3.0296,3.014,3.029,3.0289,3.0288,3.0288,3.0287,2.9627,2.9676,2.9727,2.9791,2.983,2.9876,2.9926,2.9956,3.0014,3.0085,3.0094,3.0169,3.022,3.0309,3.0343,3.0401,3.0387,3.041,3.0415,3.042,3.0422,3.0283,3.0414,3.0414,3.0413,3.0413,3.0413,0,2.9748,2.978,2.9839,2.9908,2.9958,2.9952,3.0006,3.0048,3.0114,3.0161,3.0216,3.0295,3.0361,3.0401,3.0467,3.0506,3.0507,3.0523,3.0519,3.0526,3.0432,3.0411,3.0521,3.0521,3.0521,3.0521,3.0521,3.0521,2.9817,2.9899,2.9915,3.0017,3.0049,3.0121,3.0152,3.0194,3.0232,3.0321,3.0375,3.04,3.0445,3.0514,3.0574,3.0584,3.0607,3.0624,3.0633,3.0544,3.0533,3.0522,3.0502,3.0629,3.0629,3.0721,3.0722,3.0723]},{"header":{"parameterUnit":"m.s-1","parameterCategory":1,"la1":30.2991,"la2":30.254,"lo1":-89.0895,"lo2":-89.0444,"dy":0.0017,"dx":0.0017,"nx":28,"ny":28,"refTime":"2023-08-22T09:00:00:Z","depth":0,"parameterNumber":3,"parameterNumberName":"V-component_of_WINDS"},"data":[0,0,0,0,0,0,0,0,0,0,0,0,0,0,0,0,0,0,0,0,0,0,0,0,0,0,0,0,0,0,0,0,0,0,0,0,0,0,0,0,0,0,0,0,0,0,0,0,0,0,0,0,0,0,0,0,0,0,1.2581,1.2581,0,1.2594,1.2594,1.2594,1.257,1.2569,1.2569,1.2568,1.2581,1.2582,1.2583,0,0,0,0,0,0,0,0,0,0,0,0,0,1.2533,1.2534,1.2581,1.2581,1.2581,1.2594,1.2594,1.2594,1.257,1.2569,1.2568,1.2567,1.258,1.2582,1.2583,0,0,0,0,0,0,0,0,0,0,0,0,0,1.2551,1.2534,1.2581,1.2571,1.257,1.2594,1.2594,1.2594,1.2571,1.2569,1.2568,1.2567,1.258,1.2582,1.2583,1.2618,0,0,1.2588,1.2589,0,0,0,0,0,0,0,0,1.255,1.2553,1.2572,1.2571,1.2571,1.2579,1.2582,1.2602,1.2571,1.257,1.2568,1.2566,1.2581,1.2583,1.2588,1.2618,1.2619,1.2588,1.2589,1.259,1.2591,0,0,0,0,0,0,0,1.2549,1.2552,1.2586,1.2572,1.2571,1.2565,1.2566,1.2586,1.2582,1.257,1.2569,1.257,1.2581,1.2586,1.2588,1.2619,1.2588,1.259,1.2591,1.2591,1.2677,1.2678,0,0,0,0,0,0,1.2549,1.2551,1.2586,1.2586,1.2557,1.2567,1.2568,1.2578,1.2582,1.2582,1.2571,1.2569,1.2584,1.2586,1.2588,1.2628,1.259,1.2592,1.2593,1.2675,1.2677,1.2678,0,0,0,0,0,0,1.2548,1.2552,1.2585,1.2568,1.2572,1.2569,1.258,1.2579,1.2584,1.2583,1.2582,1.2578,1.2583,1.2586,1.261,1.2628,1.2592,1.2594,1.2674,1.2676,1.2678,1.2708,0,0,0,0,0,0,1.2547,1.2552,1.2566,1.2569,1.2573,1.2607,1.2581,1.258,1.2587,1.2585,1.2589,1.2588,1.2582,1.2608,1.2612,1.263,1.2595,1.2672,1.2675,1.2677,1.2705,1.2711,1.2715,0,0,0,0,0,1.2545,1.2574,1.2566,1.2571,1.259,1.2609,1.2611,1.2603,1.2589,1.2602,1.2601,1.2588,1.2625,1.2611,1.2615,1.2633,1.2671,1.2674,1.2677,1.2703,1.271,1.2715,0,0,0,0,0,0,1.2573,1.2574,1.2566,1.2597,1.2603,1.2604,1.2621,1.2611,1.2621,1.2618,1.2608,1.2609,1.2635,1.2637,1.262,1.2666,1.2646,1.265,1.2664,1.267,1.2675,1.2674,1.2596,0,0,0,0,0,1.2583,1.2598,1.2598,1.2625,1.2628,1.2624,1.2632,1.2626,1.2632,1.2634,1.2635,1.264,1.2653,1.2662,1.2674,1.2705,1.2705,1.272,1.2725,1.2729,1.2732,1.2748,1.2754,1.2688,1.2688,1.2688,0,0,1.2603,1.2605,1.2616,1.2631,1.2635,1.265,1.2627,1.2644,1.2655,1.2637,1.2659,1.266,1.2666,1.2693,1.2706,1.2695,1.2751,1.2733,1.2736,1.2737,1.2752,1.2758,1.2764,1.269,1.2689,1.2689,0,0,1.2648,1.2652,1.2674,1.2678,1.2684,1.2681,1.2686,1.2689,1.2689,1.2711,1.2697,1.271,1.2733,1.2737,1.2742,1.2787,1.2775,1.2791,1.2817,1.2832,1.2837,1.2842,1.2857,1.2863,1.2794,1.2794,1.2795,0,1.2672,1.2695,1.2687,1.2705,1.2711,1.2695,1.2717,1.2721,1.2731,1.2735,1.2724,1.2751,1.2754,1.2781,1.2792,1.2797,1.2802,1.279,1.2837,1.2842,1.2846,1.286,1.2866,1.2796,1.2796,1.2796,1.2796,0,1.2724,1.274,1.2758,1.2767,1.2775,1.2796,1.2789,1.2799,1.2791,1.2789,1.2812,1.2814,1.2826,1.2832,1.2825,1.2859,1.2852,1.2839,1.2818,1.2854,1.2867,1.2873,1.2799,1.2798,1.2798,1.2797,0,0,1.2788,1.2791,1.2797,1.2801,1.2806,1.2818,1.2837,1.2848,1.2855,1.2862,1.2877,1.2896,1.2884,1.289,1.2883,1.2897,1.2931,1.2882,1.2882,1.289,1.2967,1.2976,1.2982,1.2923,1.2924,1.2925,1.2966,0,1.2831,1.2864,1.2856,1.2888,1.2902,1.2886,1.2902,1.2906,1.2904,1.2916,1.2913,1.2927,1.291,1.2913,1.2926,1.2924,1.2946,1.2921,1.2936,1.2937,1.2935,1.2989,1.3,1.3038,1.2971,1.2972,1.2973,0,1.2887,1.2895,1.2929,1.293,1.2935,1.295,1.2959,1.297,1.2974,1.2972,1.2978,1.2968,1.2986,1.2965,1.2989,1.2972,1.2978,1.2978,1.2979,1.298,1.2957,1.2991,1.305,1.3056,1.2981,1.298,1.298,0,1.2929,1.2948,1.297,1.2974,1.2976,1.2987,1.2988,1.2991,1.2998,1.3005,1.3009,1.3019,1.3024,1.3032,1.3025,1.301,1.3049,1.3028,1.3047,1.3047,1.3056,1.3055,1.3116,1.3061,1.306,1.306,1.306,0,1.2978,1.2999,1.2989,1.3003,1.3025,1.3015,1.3038,1.3037,1.304,1.3052,1.3039,1.3051,1.3041,1.3052,1.3047,1.3067,1.3069,1.3067,1.3065,1.3068,1.3068,1.3072,1.3068,1.3062,1.3062,1.3061,1.3061,0,1.3028,1.3023,1.3046,1.3045,1.3046,1.3062,1.3062,1.3074,1.3071,1.3087,1.309,1.3085,1.3097,1.3091,1.3104,1.31,1.3125,1.312,1.3124,1.3122,1.3141,1.3139,1.3206,1.3214,1.3154,1.3154,1.3155,0,1.306,1.3075,1.3077,1.3084,1.3086,1.3098,1.3105,1.3096,1.3103,1.3108,1.3119,1.313,1.3139,1.3159,1.3156,1.3165,1.316,1.3183,1.3161,1.3163,1.3159,1.3158,1.3159,1.3187,1.3187,1.3188,1.3189,0,1.3116,1.3112,1.3122,1.3131,1.3139,1.3146,1.3151,1.3158,1.3148,1.3157,1.3169,1.3176,1.3188,1.3199,1.3207,1.3208,1.3196,1.3195,1.32,1.3203,1.3204,1.3203,1.3135,1.3194,1.3193,1.3193,1.3193,1.3192,1.3158,1.317,1.3173,1.3184,1.3186,1.3191,1.3202,1.32,1.321,1.3219,1.3213,1.3227,1.323,1.3239,1.3242,1.3252,1.3243,1.325,1.3252,1.3253,1.3256,1.3203,1.3254,1.3253,1.3253,1.3253,1.3253,0,1.3212,1.3213,1.3223,1.3231,1.3239,1.3228,1.3233,1.324,1.3253,1.3256,1.3264,1.3278,1.3288,1.3285,1.3294,1.3303,1.3298,1.3306,1.3305,1.3305,1.3264,1.3258,1.3309,1.3309,1.3309,1.3309,1.3309,1.3309,1.3242,1.3262,1.3258,1.3279,1.3279,1.3293,1.3296,1.3301,1.3303,1.3318,1.3327,1.3325,1.3326,1.3334,1.3343,1.3342,1.3345,1.3355,1.3352,1.3313,1.3308,1.3303,1.3297,1.3356,1.3356,1.3392,1.3392,1.3393]}]]